Wind_Speed
7 8 9 10 10 11 13 14 14 14 15 16 15 15 16 15 15 14 14 13 13 13 12 12 11 12 11 10 10 8 8 6 5 4 3 3 3 4 4 5 6 7 7 8
6 7 7 8 9 11 13 14 14 13 14 15 14 15 16 15 14 14 14 14 14 14 12 12 11 11 11 10 9 8 7 6 5 3 3 3 3 3 4 5 5 6 7 7
4 6 7 8 9 10 11 13 13 13 13 13 14 15 15 14 14 14 14 14 14 13 13 12 12 11 11 10 9 8 7 6 5 4 3 3 3 3 4 4 5 5 6 6
4 6 7 8 9 10 11 12 12 12 13 13 13 13 14 14 14 13 13 14 13 14 13 13 12 12 11 10 9 8 7 6 6 6 5 4 3 3 3 4 4 5 6 6
5 6 7 7 9 9 10 11 11 11 11 12 12 13 13 13 14 13 13 14 14 14 13 13 13 13 12 11 10 9 8 7 6 6 6 4 3 3 3 3 3 4 5 6
4 6 6 7 8 9 10 11 11 11 10 11 11 13 13 13 13 13 13 13 14 14 14 14 14 13 13 12 11 10 9 7 6 6 6 5 4 4 3 3 3 3 4 5
4 5 6 7 8 9 10 10 10 10 11 9 10 13 13 13 14 14 14 14 14 14 14 14 13 13 13 13 11 10 10 8 7 7 6 6 5 4 3 3 3 3 3 4
5 6 7 7 8 9 9 9 9 8 7 7 9 12 12 13 14 14 14 14 15 15 15 14 14 13 13 13 12 11 10 9 8 8 7 6 6 5 4 3 3 3 3 4
6 7 7 8 9 9 9 10 8 8 8 8 10 11 11 11 13 14 13 14 14 15 14 14 14 14 14 13 13 12 11 10 9 9 8 7 6 5 5 4 3 4 4 4
8 8 8 8 9 10 10 10 10 11 10 10 10 10 10 10 12 14 13 14 14 15 15 15 15 15 14 14 14 14 12 11 10 9 8 8 7 6 6 5 5 5 5 5
9 8 8 8 9 9 10 11 11 11 11 10 10 10 11 11 11 13 14 14 15 15 14 15 15 15 14 14 14 13 12 12 11 10 9 9 8 7 7 7 6 5 5 5
10 9 8 9 8 9 11 12 13 14 13 10 10 11 11 11 12 13 15 15 16 16 15 14 14 14 14 14 14 13 13 12 12 11 10 10 10 9 8 8 7 6 7 6
11 10 8 9 9 9 10 12 13 14 14 12 11 11 12 12 11 12 14 15 16 16 16 16 15 14 14 14 14 14 14 13 13 12 11 11 11 10 10 10 9 8 8 8
12 11 10 10 9 9 10 12 12 13 13 13 13 12 12 11 12 13 14 15 16 16 16 16 16 15 14 15 15 15 15 15 14 13 12 12 12 11 11 11 10 9 9 9
13 13 12 12 12 12 12 12 13 13 14 14 14 14 13 13 14 14 14 15 16 16 16 17 17 16 15 15 15 16 16 16 15 14 13 13 14 13 12 12 11 10 9 9
13 13 13 12 12 13 13 12 12 13 14 15 15 15 14 14 14 14 15 16 16 15 15 16 16 16 16 16 16 16 16 16 16 15 15 15 15 14 14 13 11 10 10 10
13 14 14 13 12 13 13 13 12 13 14 14 14 14 14 14 14 14 14 15 16 16 15 15 16 17 16 16 17 17 17 17 17 16 16 16 16 15 14 14 13 12 11 11
14 14 14 13 12 12 11 13 13 13 13 13 14 13 12 13 14 13 13 14 16 16 16 16 17 17 17 17 17 18 18 18 18 17 17 17 16 16 15 15 14 13 13 12
15 15 15 14 13 13 12 12 13 13 13 14 14 13 13 13 13 13 14 14 15 16 17 17 17 17 17 18 18 19 19 18 18 18 18 18 17 16 16 16 15 15 14 14
15 16 17 15 15 14 13 13 13 13 14 15 14 14 13 14 14 12 13 14 15 16 17 17 17 17 18 19 19 19 18 18 18 18 19 18 17 17 17 17 16 16 16 16
16 16 16 16 16 15 15 15 15 15 15 15 15 15 14 14 14 14 14 13 13 14 16 17 17 17 17 17 17 17 17 18 19 19 18 18 18 18 18 17 17 17 18 18
17 16 16 16 17 17 16 16 17 17 17 16 15 16 16 16 15 15 14 15 14 14 14 16 17 16 17 17 17 18 18 18 19 18 18 18 18 18 18 18 19 19 19 20
18 18 18 19 19 18 18 18 19 19 18 17 16 16 17 16 16 15 15 16 16 15 16 16 16 16 16 17 17 18 19 19 19 18 19 19 19 20 20 20 21 21 22 22
21 20 21 21 20 19 19 19 19 19 19 18 18 18 18 17 17 17 17 17 17 17 17 17 17 17 18 18 19 19 19 19 20 19 19 20 21 21 22 22 23 23 24 25
24 24 24 24 23 22 22 21 20 20 20 20 19 19 19 19 19 19 19 19 19 19 20 20 20 20 20 20 20 21 21 21 21 21 21 22 22 23 23 24 25 26 26 27
26 26 26 25 24 25 24 23 23 23 22 22 22 21 21 21 21 21 21 21 22 22 22 22 22 22 22 22 23 23 23 23 23 24 24 24 24 25 25 26 27 28 29 30
Wind_Direction
236 232 230 225 214 214 219 222 220 224 227 228 230 227 225 222 223 223 229 228 224 222 220 220 222 219 219 220 224 224 219 223 235 245 268 290 306 320 330 336 342 347 349 351
239 226 219 215 213 210 214 220 224 224 229 231 228 226 224 227 230 226 228 226 224 221 219 217 218 215 213 214 217 219 218 219 235 247 267 285 297 311 322 332 340 347 351 353
232 225 218 218 214 210 210 216 219 223 228 232 230 227 229 229 228 228 227 226 222 220 219 217 213 211 212 213 214 216 221 228 241 251 265 277 291 301 316 333 341 349 354 357
233 225 220 217 213 211 214 217 220 226 226 228 234 234 231 230 224 225 226 225 223 219 217 214 213 209 210 216 218 221 226 234 244 246 251 259 274 288 306 325 338 344 351 358
239 228 224 217 212 212 214 214 220 225 230 234 234 238 231 233 229 225 224 224 221 218 215 214 215 214 214 219 223 225 223 232 240 244 244 251 267 275 291 306 324 343 354 359
240 225 223 216 213 212 209 212 215 223 227 235 235 242 235 233 229 228 226 225 221 218 217 216 219 220 220 220 224 225 228 233 239 244 239 248 262 268 284 294 312 334 345 354
249 234 228 219 214 212 214 216 213 220 225 234 237 243 239 235 231 230 226 226 223 221 221 221 221 223 221 219 224 226 229 232 237 240 244 252 259 263 273 284 305 326 335 343
260 254 241 235 228 221 216 213 212 216 235 248 247 249 241 241 234 233 227 225 225 223 224 223 221 220 219 219 224 226 228 231 235 238 243 250 254 257 261 275 299 314 320 327
252 264 252 238 229 225 217 210 211 212 224 239 250 253 253 247 233 231 229 226 226 224 223 221 219 219 219 220 222 226 228 230 234 237 240 245 254 262 264 271 289 302 310 311
237 250 249 237 231 227 226 216 211 212 220 230 236 249 255 250 238 235 232 229 227 223 222 221 221 220 220 222 224 227 231 230 234 240 241 247 251 257 263 271 279 292 300 303
234 239 240 237 232 229 226 219 216 216 223 231 233 239 248 247 244 238 234 229 225 225 224 223 221 222 223 224 226 228 231 232 234 239 242 245 252 257 261 266 271 282 293 300
234 232 235 238 235 235 232 224 219 219 221 233 245 241 248 250 247 237 231 227 225 226 226 225 224 227 226 226 226 229 232 234 237 241 245 246 250 254 259 264 270 277 281 286
228 228 233 237 237 236 237 227 225 223 218 230 248 253 253 255 248 239 233 229 226 226 228 226 226 229 229 228 228 231 232 234 239 245 247 249 249 255 260 263 266 270 274 278
231 227 231 237 232 230 233 228 225 221 219 230 239 247 248 247 249 246 236 230 228 226 228 227 228 229 230 230 230 234 233 235 240 245 248 248 250 255 261 263 264 267 270 274
233 231 235 238 235 232 234 235 232 227 225 230 233 235 236 244 248 245 236 229 227 227 228 228 226 229 232 233 234 236 236 237 241 245 247 250 252 255 260 261 263 267 271 273
232 232 236 239 240 238 235 234 233 232 230 230 232 233 234 240 241 240 237 231 229 229 228 226 226 230 234 237 238 237 239 240 242 246 247 251 253 256 258 259 260 264 269 273
237 234 235 234 239 241 236 233 233 233 234 236 237 235 234 239 241 240 237 234 231 232 231 232 232 235 236 240 240 238 241 243 243 246 249 254 254 256 256 256 257 261 265 270
241 237 238 237 236 244 237 234 238 241 245 246 243 241 242 245 246 242 239 237 235 234 235 238 238 238 239 239 239 240 242 246 247 248 252 255 256 256 256 256 257 260 264 267
243 239 240 240 238 242 241 238 241 244 248 250 249 246 245 245 246 244 242 240 238 237 238 238 238 240 243 243 244 245 247 247 248 251 255 255 256 257 255 258 257 259 261 265
242 239 238 237 234 237 239 236 239 246 248 246 246 246 245 244 244 246 246 243 240 239 239 238 239 242 244 245 246 247 247 247 250 253 255 254 257 258 258 257 257 259 262 266
247 243 240 238 236 235 238 241 241 242 242 243 243 242 244 244 244 244 245 245 244 241 239 239 241 245 246 245 247 248 249 250 251 254 255 256 258 260 260 259 260 261 264 267
247 245 243 242 237 240 243 242 241 242 242 244 245 245 246 248 249 247 245 245 245 244 244 243 243 245 246 247 250 249 251 251 251 252 254 257 258 259 260 262 263 264 266 269
242 242 243 243 244 244 245 243 241 245 244 245 245 245 247 249 251 249 248 247 245 245 247 247 247 246 247 248 250 251 251 251 252 253 257 259 261 262 263 264 266 267 270 271
244 243 242 242 243 244 244 245 245 246 245 247 246 246 248 249 249 250 250 250 250 249 248 249 249 248 250 250 251 253 253 254 255 257 260 261 263 264 264 267 268 270 273 275
245 246 245 245 245 246 248 246 246 247 246 247 248 249 252 254 253 252 251 250 251 252 252 251 250 251 251 252 252 255 256 256 258 260 262 263 265 266 267 269 270 273 275 277
246 247 247 247 246 247 249 249 249 247 247 247 249 251 254 256 256 255 255 255 254 252 254 254 254 253 254 255 254 256 257 256 258 261 263 264 266 267 268 270 272 274 276 278
Height
5809 5811 5811 5812 5814 5817 5819 5821 5823 5826 5828 5831 5833 5836 5839 5841 5843 5846 5849 5851 5853 5856 5858 5860 5863 5865 5868 5870 5872 5873 5875 5876 5877 5878 5878 5878 5878 5878 5877 5876 5876 5875 5874 5872
5809 5810 5811 5811 5813 5815 5818 5820 5822 5824 5827 5829 5831 5834 5837 5839 5841 5844 5847 5849 5852 5854 5856 5859 5861 5864 5866 5868 5871 5872 5874 5875 5876 5877 5877 5877 5877 5877 5877 5876 5875 5874 5873 5872
5808 5810 5810 5811 5813 5814 5817 5819 5821 5823 5825 5827 5830 5832 5835 5837 5839 5842 5845 5847 5849 5852 5855 5857 5860 5862 5865 5867 5869 5871 5873 5874 5875 5875 5876 5876 5876 5876 5876 5876 5875 5874 5873 5872
5807 5808 5809 5811 5812 5814 5816 5818 5820 5822 5824 5826 5829 5831 5833 5835 5838 5841 5843 5845 5847 5850 5853 5856 5858 5861 5863 5866 5868 5870 5871 5872 5874 5874 5875 5876 5876 5876 5876 5875 5875 5874 5873 5872
5807 5808 5809 5810 5812 5813 5815 5817 5819 5821 5823 5825 5827 5829 5832 5833 5836 5839 5841 5843 5846 5848 5851 5854 5857 5859 5862 5864 5866 5868 5870 5871 5872 5873 5874 5875 5875 5875 5875 5875 5874 5874 5873 5872
5807 5808 5808 5809 5811 5812 5814 5816 5818 5820 5822 5825 5827 5828 5830 5832 5834 5837 5840 5842 5844 5847 5850 5852 5855 5858 5860 5862 5864 5866 5868 5869 5871 5872 5873 5874 5874 5874 5874 5874 5874 5873 5872 5872
5806 5807 5808 5809 5810 5812 5813 5815 5817 5819 5821 5824 5826 5826 5829 5831 5833 5835 5838 5840 5842 5845 5848 5850 5853 5855 5858 5860 5863 5864 5866 5868 5869 5870 5871 5872 5873 5873 5873 5873 5873 5872 5872 5872
5806 5807 5808 5809 5810 5811 5813 5815 5818 5819 5821 5823 5824 5825 5828 5829 5831 5833 5836 5838 5840 5843 5846 5848 5851 5853 5856 5858 5861 5863 5864 5866 5867 5869 5870 5871 5871 5872 5872 5872 5872 5872 5871 5871
5805 5806 5807 5808 5809 5811 5812 5813 5816 5818 5820 5822 5823 5825 5826 5827 5829 5831 5834 5836 5838 5841 5843 5846 5849 5851 5854 5856 5858 5861 5862 5864 5866 5867 5868 5869 5870 5870 5870 5870 5871 5871 5870 5870
5803 5805 5806 5807 5808 5810 5812 5813 5815 5817 5819 5820 5822 5823 5825 5826 5827 5829 5831 5834 5836 5839 5841 5844 5847 5849 5851 5854 5856 5858 5860 5862 5863 5865 5866 5867 5868 5868 5869 5869 5869 5869 5869 5869
5802 5803 5805 5806 5807 5809 5811 5812 5814 5815 5817 5818 5820 5823 5823 5824 5825 5827 5829 5831 5834 5837 5839 5842 5844 5847 5849 5851 5853 5856 5858 5859 5861 5863 5864 5865 5866 5866 5867 5867 5868 5868 5868 5868
5800 5801 5802 5804 5806 5807 5808 5810 5812 5814 5816 5817 5818 5822 5821 5822 5823 5824 5826 5829 5831 5834 5837 5839 5842 5844 5846 5849 5851 5853 5855 5857 5859 5860 5862 5863 5863 5864 5865 5865 5865 5866 5866 5866
5798 5800 5801 5802 5805 5806 5807 5808 5810 5812 5814 5815 5816 5820 5818 5819 5820 5822 5824 5826 5829 5831 5834 5836 5839 5841 5844 5846 5848 5850 5852 5854 5856 5858 5859 5860 5861 5862 5862 5863 5863 5863 5863 5864
5796 5797 5800 5801 5801 5803 5805 5806 5808 5809 5811 5813 5814 5816 5816 5818 5819 5820 5822 5824 5826 5828 5831 5833 5836 5838 5841 5843 5845 5847 5849 5851 5853 5855 5856 5857 5858 5859 5859 5860 5860 5860 5861 5861
5794 5795 5796 5797 5798 5800 5802 5804 5805 5807 5808 5810 5812 5813 5814 5815 5816 5817 5819 5821 5823 5826 5828 5830 5833 5835 5838 5840 5842 5844 5846 5848 5850 5852 5853 5854 5855 5856 5856 5857 5857 5858 5858 5858
5791 5793 5794 5796 5797 5798 5800 5801 5803 5805 5806 5807 5809 5811 5812 5813 5814 5815 5817 5819 5821 5823 5825 5827 5830 5832 5835 5837 5839 5841 5843 5845 5847 5848 5850 5851 5852 5852 5853 5854 5854 5855 5855 5856
5788 5790 5792 5793 5794 5795 5798 5799 5801 5802 5803 5805 5806 5809 5809 5810 5811 5812 5814 5816 5818 5821 5823 5825 5827 5830 5832 5834 5836 5837 5839 5841 5843 5844 5846 5847 5848 5848 5849 5850 5850 5851 5852 5852
5786 5787 5789 5790 5792 5794 5797 5797 5798 5800 5801 5802 5803 5805 5806 5808 5809 5810 5812 5814 5816 5818 5820 5822 5824 5826 5828 5830 5832 5833 5835 5837 5839 5840 5842 5843 5844 5844 5845 5846 5847 5848 5849 5849
5783 5784 5786 5788 5789 5791 5794 5795 5796 5797 5799 5800 5801 5802 5804 5805 5806 5808 5809 5811 5813 5815 5817 5819 5821 5822 5824 5826 5828 5829 5831 5832 5834 5836 5837 5838 5839 5840 5841 5842 5843 5844 5844 5845
5779 5781 5783 5784 5786 5788 5791 5791 5793 5796 5796 5797 5798 5799 5801 5802 5804 5806 5806 5807 5809 5811 5813 5815 5817 5819 5820 5822 5824 5825 5827 5828 5830 5831 5833 5834 5835 5836 5837 5837 5838 5839 5840 5841
5776 5778 5779 5781 5782 5784 5786 5788 5790 5793 5793 5793 5794 5796 5797 5799 5801 5802 5803 5804 5806 5808 5810 5811 5813 5815 5816 5818 5819 5821 5822 5824 5825 5827 5828 5829 5830 5831 5832 5833 5834 5834 5835 5836
5772 5774 5776 5777 5779 5782 5782 5784 5786 5787 5788 5790 5791 5793 5794 5796 5797 5798 5800 5801 5803 5804 5806 5808 5809 5811 5812 5814 5815 5817 5818 5819 5820 5822 5823 5824 5825 5826 5827 5828 5828 5829 5830 5831
5768 5770 5771 5774 5776 5777 5777 5779 5781 5783 5785 5786 5788 5790 5791 5792 5793 5795 5796 5798 5799 5801 5802 5804 5805 5807 5808 5810 5811 5812 5814 5815 5816 5817 5818 5819 5820 5821 5822 5822 5823 5823 5824 5824
5763 5764 5766 5768 5769 5771 5772 5774 5777 5779 5781 5782 5784 5786 5787 5788 5790 5791 5793 5794 5795 5797 5798 5799 5801 5802 5804 5805 5806 5808 5809 5810 5811 5812 5813 5814 5814 5815 5816 5816 5817 5817 5817 5818
5757 5759 5761 5763 5764 5765 5767 5769 5772 5774 5776 5777 5779 5781 5782 5784 5785 5787 5788 5789 5791 5792 5793 5795 5796 5797 5798 5800 5801 5802 5803 5804 5805 5806 5807 5808 5808 5809 5809 5810 5810 5810 5810 5810
5751 5753 5754 5757 5759 5760 5762 5764 5766 5768 5770 5772 5774 5776 5777 5779 5780 5782 5783 5784 5785 5787 5788 5789 5790 5791 5792 5794 5795 5796 5797 5798 5799 5800 5800 5801 5801 5802 5802 5802 5803 5802 5802 5802